Winnipeg, Manitoba

11:20 AM CST on December 15, 2017 (GMT -0600)
Winnipeg International Airport

Weather History for CYWG - May, 2013

Change the Weather History Date:

Tuesday, May 21, 2013

  Actual Average Record
Temperature  
Mean Temperature 59 °F -  
Max Temperature 72 °F 71 °F 82 °F (2016)
Min Temperature 46 °F 48 °F 28 °F (1997)
Degree Days  
Heating Degree Days 6    
Growing Degree Days 9 (Base 50)    
Moisture  
Dew Point 33 °F    
Average Humidity 46    
Maximum Humidity 71    
Minimum Humidity 9    
Precipitation  
Precipitation 0.02 in 0.10 in - ()
Sea Level Pressure  
Sea Level Pressure 29.96 in    
Wind  
Wind Speed 17 mph ()    
Max Wind Speed 29 mph    
Max Gust Speed 39 mph    
Visibility 13.8 miles    
Events Rain    
Averages and records for this station are not official NWS values.
T = Trace of Precipitation, MM = Missing Value Source: Averaged Metar Reports

Daily Weather History Graph

Daily Weather History Graph

Search for Another Location

Airport or City:

Trip Planner

Search our weather history database for the weather conditions in past years. The results will help you decide how hot, cold, wet, or windy it might be!

Date:

Astronomy

May. 21, 2013 Rise Set
Actual Time 5:35 AM CDT 9:16 PM CDT
Civil Twilight 4:54 AM CDT 9:57 PM CDT
Nautical Twilight 3:59 AM CDT 10:52 PM CDT
Astronomical Twilight 2:38 AM CDT 12:15 AM CDT
Moon 5:11 PM CDT (5/21) 3:27 AM CDT (5/21)
Length of Visible Light 17h 02m
Length of Day
15h 41m
Waxing Gibbous, 84% of the Moon is Illuminated
May 21
Waxing Gibbous
May 24
Full
May 31
Last Quarter
Jun 8
New
Jun 16
First Quarter

Hourly Weather History & Observations

Time (CDT) Temp. Windchill Dew Point Humidity Pressure Visibility Wind Dir Wind Speed Gust Speed Precip Events Conditions
12:00 AM 51.8 °F - 37.4 °F 58% 29.95 in 15.0 mi NE 23.0 mph 31.1 mph N/A   Overcast
12:19 AM 50.0 °F - 39.2 °F 66% 29.95 in 10.0 mi NE 21.9 mph 27.6 mph N/A Rain Light Rain
1:00 AM 50 °F - 41 °F 61% 29.94 in 9 mi Calm Calm - -   Unknown Precipitation
1:00 AM 50.0 °F - 39.2 °F 66% 29.94 in 10.0 mi NE 20.7 mph 31.1 mph N/A Rain Light Rain
2:00 AM 50.0 °F - 37.4 °F 62% 29.94 in 12.0 mi NE 18.4 mph 24.2 mph N/A Rain Light Rain
2:31 AM 50.0 °F - 35.6 °F 58% 29.94 in 15.0 mi NE 23.0 mph 28.8 mph N/A   Overcast
3:00 AM 50.0 °F - 35.6 °F 58% 29.94 in 15.0 mi NE 16.1 mph 25.3 mph N/A   Overcast
4:00 AM 50.0 °F - 33.8 °F 54% 29.94 in 15.0 mi NE 18.4 mph 25.3 mph N/A   Overcast
5:00 AM 48.2 °F - 37.4 °F 66% 29.95 in 15.0 mi NNE 11.5 mph - N/A   Overcast
6:00 AM 46.4 °F 40.4 °F 37.4 °F 71% 29.96 in 15.0 mi NNE 13.8 mph - N/A Rain Light Rain
7:00 AM 47 °F - 39 °F 65% 29.96 in 9 mi Calm Calm - -  
7:00 AM 46.4 °F 39.5 °F 37.4 °F 71% 29.96 in 15.0 mi NNE 17.3 mph - N/A   Overcast
7:24 AM 46.4 °F 39.2 °F 37.4 °F 71% 29.96 in 15.0 mi NNE 18.4 mph - N/A Rain Light Rain Showers
8:00 AM 48.2 °F - 37.4 °F 66% 29.96 in 15.0 mi NNE 17.3 mph - N/A Rain Light Rain Showers
8:36 AM 48.2 °F - 37.4 °F 66% 29.97 in 15.0 mi NNE 17.3 mph - N/A   Overcast
9:00 AM 50.0 °F - 37.4 °F 62% 29.96 in 15.0 mi NNE 18.4 mph 25.3 mph N/A   Overcast
10:00 AM 53.6 °F - 35.6 °F 51% 29.96 in 15.0 mi NE 18.4 mph 24.2 mph N/A   Mostly Cloudy
11:00 AM 57.2 °F - 35.6 °F 44% 29.96 in 15.0 mi NE 23.0 mph 29.9 mph N/A   Mostly Cloudy
12:00 PM 59.0 °F - 35.6 °F 42% 29.97 in 15.0 mi ENE 23.0 mph 34.5 mph N/A   Mostly Cloudy
1:00 PM 65 °F - 36 °F 23% 29.95 in 9 mi Calm Calm - -  
1:00 PM 64.4 °F - 33.8 °F 32% 29.95 in 15.0 mi NE 24.2 mph 35.7 mph N/A   Mostly Cloudy
2:00 PM 68.0 °F - 30.2 °F 24% 29.94 in 15.0 mi NE 24.2 mph 36.8 mph N/A   Mostly Cloudy
3:00 PM 69.8 °F - 28.4 °F 21% 29.94 in 15.0 mi NNE 24.2 mph 33.4 mph N/A   Mostly Cloudy
4:00 PM 69.8 °F - 21.2 °F 16% 29.95 in 15.0 mi ENE 28.8 mph 39.1 mph N/A   Mostly Cloudy
5:00 PM 71.6 °F - 24.8 °F 17% 29.95 in 15.0 mi ENE 19.6 mph 28.8 mph N/A   Mostly Cloudy
6:00 PM 71.6 °F - 24.8 °F 17% 29.94 in 15.0 mi ENE 19.6 mph 28.8 mph N/A   Scattered Clouds
7:00 PM 71 °F - 26 °F 9% 29.94 in 9 mi Calm Calm - -  
7:00 PM 69.8 °F - 23.0 °F 17% 29.94 in 15.0 mi East 18.4 mph 25.3 mph N/A   Scattered Clouds
8:00 PM 68.0 °F - 24.8 °F 20% 29.96 in 15.0 mi ENE 13.8 mph 21.9 mph N/A   Partly Cloudy
9:00 PM 60.8 °F - 24.8 °F 25% 29.98 in 15.0 mi East 8.1 mph - N/A   Partly Cloudy
10:00 PM 53.6 °F - 30.2 °F 41% 30.00 in 15.0 mi NNE 6.9 mph - N/A   Partly Cloudy
11:00 PM 48.2 °F - 35.6 °F 62% 30.01 in 15.0 mi North 9.2 mph - N/A   Partly Cloudy